Location: Kapuskasing
(49.3803°N, 82.4001°W)
Time: 10:12:03
(UTC-04:00)

Envisat - Pass Details

Date: 16 March 2026
Orbit: 761 x 762 km, 98.4° (Epoch: 19 April)

Event Time Altitude Azimuth Distance (km) Brightness Sun altitude
Rises 04:44:58 0° 11° (N) 3,237 6.9 -28.0°
Reaches altitude 10° 04:47:19 10° 8° (N) 2,307 6.0 -27.6°
Enters shadow 04:51:21 49° 332° (NNW) 976 3.5 -27.1°
